Temp
-11 -11 -11 -11 -11 -11 -11 -11 -11 -11 -11 -11 -11 -11 -10 -10 -10 -10 -10 -10 -9 -9 -9 -9 -9 -9 -9 -9 -9 -9 -9 -9 -9 -9 -9 -9 -9 -9 -9 -9 -9 -9 -9 -9 -9 -9 -9 -9 -9 -9 -9 -9 -9 -9 -9 -9 -9 -9 -9 -9 -9 -9 -9 -9 -9 -9 -9 -8 -8
-11 -11 -11 -11 -11 -11 -11 -11 -11 -11 -11 -11 -11 -11 -10 -10 -10 -10 -10 -9 -9 -9 -9 -9 -9 -9 -9 -9 -9 -9 -9 -9 -9 -9 -9 -9 -9 -9 -9 -9 -9 -9 -9 -9 -9 -9 -9 -9 -9 -9 -9 -9 -9 -9 -9 -9 -9 -9 -9 -9 -9 -9 -9 -9 -9 -9 -9 -8 -8
-11 -11 -11 -11 -11 -11 -11 -11 -11 -11 -11 -11 -11 -10 -10 -10 -10 -10 -9 -9 -9 -9 -9 -9 -9 -9 -9 -9 -9 -9 -9 -9 -9 -9 -9 -9 -9 -9 -9 -9 -9 -9 -9 -9 -9 -9 -9 -9 -9 -9 -9 -9 -9 -9 -9 -9 -9 -9 -9 -9 -9 -9 -9 -9 -9 -9 -9 -8 -8
-10 -11 -11 -11 -11 -11 -11 -11 -11 -11 -10 -10 -10 -10 -10 -10 -10 -9 -9 -9 -9 -9 -9 -9 -9 -9 -9 -9 -9 -9 -9 -9 -9 -9 -9 -9 -9 -9 -9 -9 -9 -9 -9 -9 -9 -9 -9 -9 -9 -9 -9 -9 -9 -9 -9 -9 -9 -9 -9 -9 -9 -9 -9 -9 -9 -9 -9 -9 -8
-10 -11 -11 -11 -11 -11 -11 -11 -11 -10 -10 -10 -10 -10 -10 -10 -10 -9 -9 -9 -9 -9 -9 -9 -9 -9 -9 -9 -9 -9 -9 -9 -9 -9 -9 -9 -9 -9 -9 -9 -9 -9 -9 -9 -9 -9 -9 -9 -9 -9 -9 -9 -9 -9 -9 -9 -9 -9 -9 -9 -9 -9 -9 -9 -9 -9 -9 -9 -9
-10 -11 -11 -11 -11 -11 -11 -10 -10 -10 -10 -10 -10 -10 -10 -10 -10 -10 -9 -9 -9 -9 -9 -9 -9 -9 -9 -9 -9 -9 -9 -9 -9 -9 -9 -9 -8 -8 -9 -9 -9 -9 -9 -9 -9 -9 -9 -9 -9 -9 -9 -9 -9 -9 -9 -9 -9 -9 -9 -9 -9 -9 -9 -9 -9 -9 -9 -9 -9
-10 -11 -11 -11 -11 -11 -10 -10 -10 -10 -10 -10 -10 -10 -10 -10 -10 -10 -10 -10 -9 -9 -9 -9 -9 -9 -9 -9 -9 -9 -9 -9 -9 -9 -9 -9 -8 -8 -8 -8 -8 -8 -8 -8 -8 -9 -9 -9 -9 -9 -9 -9 -9 -9 -9 -9 -9 -9 -9 -9 -9 -9 -9 -10 -9 -9 -9 -9 -9
-10 -10 -11 -11 -11 -10 -10 -10 -10 -10 -10 -10 -10 -10 -9 -10 -10 -10 -10 -10 -10 -9 -9 -9 -9 -9 -9 -9 -9 -9 -9 -9 -9 -9 -9 -9 -8 -8 -8 -8 -8 -8 -8 -8 -8 -8 -8 -9 -9 -9 -9 -9 -9 -9 -9 -9 -9 -9 -9 -9 -9 -9 -9 -10 -10 -9 -9 -9 -9
-10 -10 -10 -10 -10 -10 -10 -10 -10 -10 -10 -10 -9 -9 -9 -10 -10 -10 -10 -10 -9 -9 -9 -9 -9 -9 -9 -9 -9 -9 -9 -9 -9 -9 -9 -8 -8 -8 -8 -8 -8 -8 -8 -8 -8 -8 -8 -8 -9 -9 -9 -9 -9 -9 -9 -9 -9 -9 -9 -9 -9 -9 -9 -9 -9 -9 -9 -9 -9
-10 -10 -10 -10 -10 -10 -10 -10 -10 -10 -9 -9 -9 -9 -9 -9 -9 -10 -10 -10 -9 -9 -9 -9 -9 -9 -9 -9 -9 -9 -9 -9 -9 -9 -9 -8 -8 -8 -8 -8 -8 -8 -7 -7 -7 -7 -7 -8 -8 -8 -8 -9 -9 -9 -9 -9 -9 -9 -9 -9 -9 -9 -9 -9 -9 -9 -9 -9 -9
-10 -10 -10 -10 -10 -10 -10 -10 -10 -9 -9 -9 -9 -9 -9 -9 -9 -9 -10 -10 -9 -9 -9 -9 -9 -9 -9 -9 -9 -9 -9 -9 -9 -9 -9 -8 -8 -8 -8 -8 -8 -8 -7 -7 -7 -7 -7 -7 -8 -8 -8 -8 -8 -9 -9 -9 -9 -9 -9 -9 -9 -9 -9 -9 -9 -9 -9 -9 -9
-10 -10 -10 -10 -10 -10 -10 -9 -10 -10 -9 -9 -9 -9 -9 -9 -9 -9 -9 -9 -9 -9 -9 -9 -9 -9 -9 -9 -9 -9 -9 -9 -9 -9 -9 -8 -8 -8 -8 -8 -8 -7 -7 -7 -7 -7 -7 -7 -7 -7 -8 -8 -8 -8 -8 -8 -8 -9 -9 -9 -9 -9 -9 -9 -9 -9 -9 -9 -8
-9 -10 -10 -9 -9 -9 -9 -9 -9 -10 -10 -9 -9 -9 -9 -9 -9 -9 -9 -9 -9 -9 -9 -9 -9 -9 -9 -9 -9 -9 -9 -9 -9 -9 -9 -8 -8 -8 -8 -8 -8 -7 -7 -7 -7 -7 -7 -7 -7 -7 -7 -7 -7 -7 -8 -8 -8 -8 -8 -8 -8 -8 -8 -8 -8 -8 -8 -8 -8
-9 -9 -9 -9 -9 -9 -9 -9 -9 -10 -10 -9 -9 -9 -9 -9 -9 -9 -9 -9 -9 -9 -9 -9 -9 -9 -9 -9 -9 -9 -9 -9 -9 -9 -8 -8 -8 -8 -8 -8 -8 -7 -7 -7 -7 -7 -7 -7 -7 -7 -7 -7 -7 -7 -7 -7 -7 -8 -8 -8 -8 -8 -8 -8 -8 -8 -8 -8 -8
-9 -9 -9 -9 -9 -9 -9 -9 -9 -10 -10 -9 -9 -9 -9 -9 -9 -9 -9 -9 -9 -9 -9 -8 -8 -8 -8 -9 -9 -9 -9 -9 -9 -9 -9 -8 -8 -8 -8 -8 -7 -7 -6 -6 -7 -7 -7 -7 -7 -7 -7 -7 -7 -7 -6 -7 -7 -7 -7 -7 -7 -7 -7 -7 -7 -7 -7 -7 -7
-9 -9 -9 -9 -9 -9 -9 -9 -9 -9 -9 -9 -9 -9 -9 -9 -9 -9 -9 -9 -9 -9 -8 -8 -8 -8 -8 -8 -8 -9 -9 -9 -9 -9 -9 -9 -8 -8 -8 -7 -7 -7 -6 -6 -7 -7 -7 -7 -7 -7 -7 -7 -7 -7 -6 -6 -6 -6 -6 -6 -6 -6 -6 -6 -6 -6 -6 -6 -6
-9 -9 -9 -9 -9 -9 -9 -9 -9 -9 -9 -9 -9 -9 -9 -9 -9 -9 -9 -9 -9 -9 -8 -8 -8 -8 -8 -8 -8 -8 -9 -9 -9 -9 -9 -9 -8 -8 -8 -7 -7 -7 -6 -6 -6 -7 -7 -7 -7 -7 -7 -7 -7 -7 -7 -6 -6 -6 -6 -6 -6 -6 -6 -6 -6 -6 -6 -6 -5
-9 -9 -9 -9 -9 -9 -9 -9 -9 -9 -9 -9 -9 -9 -9 -9 -9 -9 -9 -8 -9 -9 -8 -8 -8 -8 -8 -8 -8 -8 -9 -9 -9 -9 -9 -9 -8 -8 -8 -7 -7 -6 -6 -6 -6 -7 -7 -7 -7 -7 -7 -7 -7 -7 -7 -7 -6 -6 -6 -6 -6 -5 -5 -5 -5 -5 -5 -5 -5
-9 -9 -9 -9 -9 -9 -9 -9 -9 -9 -9 -9 -9 -9 -9 -8 -8 -8 -8 -8 -8 -8 -8 -8 -8 -7 -7 -8 -8 -8 -8 -9 -9 -9 -8 -8 -8 -8 -8 -7 -7 -6 -6 -6 -6 -6 -7 -7 -7 -7 -7 -7 -7 -7 -7 -7 -6 -6 -6 -6 -6 -5 -5 -5 -5 -5 -5 -5 -4
-9 -9 -9 -8 -8 -9 -9 -9 -9 -9 -9 -9 -9 -8 -8 -8 -8 -8 -8 -8 -8 -8 -8 -8 -7 -7 -7 -7 -7 -8 -8 -8 -8 -8 -8 -8 -8 -8 -8 -7 -7 -6 -6 -5 -5 -6 -6 -7 -7 -7 -7 -7 -7 -7 -7 -7 -7 -6 -6 -6 -6 -6 -5 -5 -5 -5 -5 -5 -5
-9 -9 -8 -8 -8 -8 -9 -9 -9 -9 -9 -9 -8 -8 -8 -8 -8 -8 -8 -8 -8 -8 -8 -7 -7 -7 -7 -7 -7 -7 -7 -8 -8 -8 -8 -8 -8 -8 -8 -8 -7 -6 -6 -5 -5 -5 -6 -6 -6 -7 -7 -7 -7 -7 -7 -7 -7 -7 -6 -6 -5 -5 -5 -6 -6 -6 -6 -6 -5
-9 -8 -8 -8 -8 -8 -9 -9 -9 -9 -9 -8 -8 -8 -8 -8 -8 -8 -8 -8 -8 -8 -7 -7 -7 -7 -7 -7 -7 -7 -7 -7 -7 -8 -8 -8 -8 -8 -8 -7 -7 -6 -5 -5 -5 -5 -5 -6 -6 -6 -7 -7 -7 -7 -7 -7 -7 -7 -7 -6 -6 -5 -5 -5 -5 -6 -6 -6 -6
-9 -8 -8 -8 -8 -8 -8 -9 -9 -9 -9 -8 -8 -8 -8 -8 -8 -8 -8 -8 -8 -8 -8 -7 -7 -7 -7 -7 -7 -7 -7 -7 -7 -7 -7 -8 -8 -8 -8 -7 -7 -6 -6 -4 -5 -5 -6 -6 -6 -6 -6 -7 -7 -7 -7 -7 -8 -7 -7 -7 -6 -6 -6 -5 -5 -6 -6 -6 -6
-8 -8 -8 -8 -8 -8 -8 -8 -9 -9 -9 -8 -8 -8 -8 -8 -8 -8 -8 -8 -8 -8 -8 -7 -7 -7 -7 -7 -7 -7 -7 -7 -7 -7 -7 -7 -7 -8 -8 -8 -7 -7 -6 -4 -4 -5 -6 -6 -6 -6 -6 -6 -7 -7 -7 -8 -8 -8 -8 -8 -7 -7 -6 -6 -6 -6 -6 -6 -6
-8 -8 -8 -8 -8 -8 -8 -8 -9 -9 -9 -9 -8 -8 -8 -8 -8 -8 -8 -8 -8 -8 -8 -7 -7 -7 -7 -7 -7 -6 -7 -7 -7 -7 -7 -7 -7 -7 -8 -8 -8 -7 -6 -5 -4 -5 -5 -6 -7 -6 -6 -6 -7 -7 -7 -7 -8 -8 -8 -8 -8 -8 -7 -7 -6 -6 -6 -6 -7
-8 -8 -8 -8 -8 -8 -8 -8 -9 -9 -9 -9 -8 -8 -8 -8 -8 -8 -8 -8 -8 -8 -8 -8 -7 -7 -8 -7 -7 -6 -6 -7 -7 -7 -7 -7 -7 -7 -7 -8 -8 -7 -6 -4 -4 -5 -5 -6 -6 -7 -7 -7 -7 -7 -7 -8 -8 -8 -8 -8 -8 -8 -8 -8 -7 -7 -7 -6 -7
-8 -8 -8 -8 -8 -8 -8 -8 -8 -9 -9 -9 -8 -8 -8 -8 -8 -8 -8 -8 -8 -8 -8 -8 -8 -8 -8 -7 -7 -7 -7 -7 -7 -7 -7 -7 -7 -7 -7 -7 -8 -7 -6 -5 -4 -5 -5 -6 -6 -7 -7 -7 -7 -7 -8 -8 -8 -8 -8 -8 -8 -8 -8 -8 -8 -8 -7 -7 -7
-8 -8 -8 -8 -8 -8 -8 -8 -9 -9 -9 -9 -8 -8 -8 -8 -8 -8 -8 -8 -8 -8 -8 -8 -8 -8 -8 -7 -7 -7 -7 -7 -7 -7 -7 -7 -7 -7 -7 -7 -7 -6 -5 -5 -5 -5 -5 -5 -6 -7 -7 -7 -7 -8 -8 -8 -8 -8 -8 -9 -9 -9 -9 -9 -9 -8 -8 -8 -7
-8 -8 -8 -8 -8 -8 -8 -8 -9 -9 -9 -9 -8 -8 -8 -8 -8 -8 -8 -8 -8 -8 -9 -9 -8 -8 -8 -8 -7 -7 -7 -7 -7 -7 -7 -7 -7 -7 -7 -7 -7 -6 -5 -5 -5 -5 -5 -5 -6 -6 -7 -7 -7 -8 -8 -8 -9 -9 -9 -9 -9 -9 -9 -9 -9 -9 -9 -8 -8
-8 -8 -8 -8 -8 -8 -8 -8 -9 -9 -9 -8 -8 -8 -8 -8 -8 -8 -7 -7 -8 -8 -9 -8 -8 -8 -8 -8 -7 -7 -7 -7 -7 -7 -7 -7 -7 -7 -7 -7 -6 -6 -6 -6 -5 -5 -5 -5 -6 -6 -7 -7 -7 -8 -8 -8 -9 -9 -9 -9 -9 -9 -9 -9 -9 -9 -9 -9 -8
-8 -8 -8 -8 -8 -8 -8 -9 -9 -9 -9 -8 -8 -8 -8 -8 -8 -8 -7 -7 -8 -8 -8 -8 -8 -8 -8 -8 -7 -7 -7 -7 -7 -7 -7 -7 -7 -7 -7 -7 -7 -6 -6 -6 -5 -5 -5 -5 -6 -6 -7 -7 -7 -7 -8 -8 -8 -9 -9 -9 -9 -9 -9 -9 -9 -9 -9 -9 -9
-8 -8 -8 -8 -8 -8 -8 -9 -9 -9 -8 -8 -8 -8 -8 -8 -8 -7 -7 -7 -7 -8 -8 -8 -8 -8 -8 -8 -7 -7 -7 -7 -7 -7 -7 -7 -7 -7 -7 -7 -7 -7 -6 -6 -5 -5 -5 -5 -6 -6 -6 -6 -7 -7 -7 -8 -8 -8 -8 -8 -8 -9 -9 -9 -9 -9 -9 -9 -9
-8 -8 -8 -8 -8 -8 -8 -9 -9 -9 -8 -8 -8 -8 -8 -8 -8 -7 -7 -7 -7 -8 -8 -8 -8 -8 -8 -8 -8 -7 -7 -7 -7 -7 -7 -7 -7 -6 -7 -7 -7 -7 -7 -6 -6 -5 -6 -6 -6 -6 -6 -6 -6 -6 -7 -7 -8 -8 -8 -8 -8 -8 -8 -9 -9 -9 -9 -9 -9
-8 -8 -8 -8 -8 -8 -8 -9 -9 -9 -8 -8 -8 -8 -8 -8 -8 -7 -7 -7 -7 -7 -8 -8 -8 -8 -8 -8 -8 -7 -7 -7 -7 -7 -7 -7 -7 -6 -6 -6 -6 -7 -7 -6 -6 -5 -6 -6 -6 -6 -6 -6 -6 -6 -7 -7 -7 -8 -8 -8 -8 -8 -8 -8 -8 -8 -9 -9 -9
-8 -8 -8 -8 -8 -8 -8 -9 -9 -9 -8 -8 -8 -8 -8 -8 -8 -8 -7 -7 -7 -7 -7 -7 -8 -8 -8 -8 -7 -7 -7 -7 -7 -7 -7 -7 -7 -6 -6 -6 -6 -6 -6 -6 -6 -6 -6 -6 -6 -6 -6 -6 -6 -6 -7 -7 -8 -8 -8 -8 -8 -8 -8 -8 -8 -8 -8 -8 -8
-8 -8 -8 -8 -8 -8 -8 -9 -9 -9 -9 -8 -8 -8 -8 -8 -8 -8 -8 -7 -7 -7 -7 -7 -7 -8 -8 -7 -7 -7 -7 -7 -7 -7 -7 -7 -7 -7 -6 -6 -6 -6 -6 -6 -6 -6 -6 -6 -6 -6 -6 -5 -6 -6 -7 -7 -7 -8 -8 -8 -8 -8 -8 -8 -8 -8 -8 -9 -9
-7 -8 -8 -8 -8 -8 -8 -8 -9 -9 -9 -9 -8 -8 -8 -8 -8 -8 -8 -8 -7 -7 -7 -7 -7 -7 -7 -7 -7 -7 -7 -7 -7 -7 -7 -7 -7 -7 -7 -6 -6 -6 -6 -6 -6 -6 -6 -6 -6 -6 -6 -6 -6 -6 -7 -7 -7 -7 -8 -8 -8 -8 -8 -8 -8 -8 -9 -9 -9
-7 -7 -8 -8 -8 -8 -8 -8 -9 -9 -9 -9 -9 -9 -8 -8 -8 -8 -8 -8 -8 -8 -7 -7 -7 -8 -8 -7 -7 -7 -7 -7 -7 -7 -7 -7 -7 -7 -7 -7 -6 -6 -6 -6 -6 -6 -6 -6 -6 -6 -6 -6 -6 -6 -6 -7 -7 -7 -8 -8 -8 -8 -8 -8 -9 -9 -9 -9 -9
-7 -7 -8 -8 -8 -8 -8 -8 -8 -9 -9 -9 -9 -9 -8 -8 -8 -8 -8 -8 -8 -8 -8 -7 -7 -8 -8 -8 -7 -7 -7 -7 -7 -7 -7 -7 -7 -7 -7 -7 -6 -6 -6 -6 -6 -6 -6 -6 -6 -6 -6 -6 -6 -6 -6 -7 -7 -7 -7 -8 -8 -8 -8 -8 -9 -9 -9 -9 -9
-7 -7 -7 -8 -8 -8 -8 -8 -8 -8 -9 -9 -9 -9 -9 -8 -8 -8 -8 -8 -8 -8 -8 -8 -8 -8 -8 -8 -8 -7 -7 -7 -7 -7 -7 -7 -7 -7 -7 -7 -7 -6 -6 -6 -6 -6 -6 -5 -5 -6 -6 -6 -6 -6 -6 -6 -7 -7 -7 -7 -8 -8 -8 -8 -9 -9 -9 -9 -9
-7 -7 -7 -7 -8 -8 -8 -8 -8 -8 -8 -8 -9 -9 -9 -9 -9 -8 -8 -8 -8 -8 -8 -8 -8 -8 -8 -8 -8 -8 -7 -7 -7 -7 -7 -7 -7 -7 -7 -7 -7 -7 -6 -6 -6 -6 -6 -6 -5 -6 -6 -6 -6 -6 -6 -6 -6 -7 -7 -7 -8 -8 -8 -8 -9 -9 -9 -9 -9
Height
896 896 895 894 893 892 891 890 889 888 887 886 884 883 881 880 878 877 875 873 871 869 867 865 862 860 857 855 853 851 849 847 846 843 841 839 837 835 832 830 828 826 824 822 821 819 818 816 815 814 812 811 809 808 807 806 805 804 803 802 801 800 799 798 797 796 795 795 794
896 895 894 894 893 891 891 890 889 887 886 885 884 883 881 880 878 876 875 873 871 869 866 864 862 859 856 854 853 851 849 847 844 842 840 837 835 833 831 828 826 824 822 820 819 817 816 814 813 811 810 808 807 806 804 803 803 802 801 800 799 799 798 797 796 795 794 793 792
896 895 894 893 892 891 890 889 888 887 886 885 883 882 881 879 878 876 874 872 870 868 866 864 861 858 856 854 852 850 848 846 843 841 838 836 833 831 828 826 824 822 820 818 816 815 813 812 811 809 808 806 805 803 802 801 801 800 799 799 798 797 796 795 794 793 792 791 791
896 895 894 892 891 891 890 889 887 886 885 884 883 882 881 879 877 876 874 871 869 867 866 863 861 858 856 854 851 849 847 845 842 840 837 834 831 829 826 824 822 820 817 816 814 812 811 810 808 807 805 804 803 801 800 800 799 799 798 797 797 796 795 794 793 792 791 790 789
895 894 893 892 891 890 889 888 887 886 885 884 882 881 880 879 877 875 873 871 869 866 864 862 860 858 856 853 851 848 846 844 841 839 836 833 830 827 825 822 820 817 815 813 811 810 808 807 806 804 803 802 801 799 798 798 797 797 796 796 795 795 794 793 791 791 790 789 788
895 894 893 892 891 890 889 888 886 885 884 883 882 881 879 878 876 874 872 870 868 866 863 862 860 858 855 852 850 847 845 842 840 838 835 832 829 826 823 821 818 816 813 811 809 807 806 805 803 802 801 800 799 797 797 796 796 796 795 794 794 793 792 791 790 789 788 787 786
895 893 892 891 890 889 888 887 886 885 884 882 881 880 879 877 875 873 871 869 867 865 863 861 859 857 854 852 849 847 844 842 839 836 834 831 828 825 822 819 816 814 811 809 806 804 803 802 801 800 799 798 797 796 795 795 794 794 793 792 791 791 790 789 788 788 787 786 785
894 893 892 891 890 889 888 886 886 884 883 882 881 880 878 876 874 872 871 868 866 865 863 861 858 856 854 852 849 847 844 841 839 836 833 830 827 824 821 818 815 812 810 807 804 802 801 800 799 799 797 796 795 794 793 793 793 792 791 790 790 789 788 787 787 786 785 784 783
894 892 891 890 889 888 887 886 885 884 883 882 880 879 877 875 874 872 870 868 866 864 862 860 858 856 853 851 849 847 844 841 839 835 832 829 826 824 821 818 815 811 808 806 803 801 799 798 797 797 796 795 794 793 792 791 791 790 790 789 788 787 786 786 785 785 784 783 782
893 892 891 890 889 888 887 886 885 884 882 881 880 878 876 875 873 871 869 867 866 864 861 859 857 855 853 851 849 846 844 841 839 835 832 829 826 823 821 817 814 811 808 805 802 800 798 797 796 795 794 793 792 791 790 790 789 789 788 787 786 786 785 785 784 783 782 781 780
892 891 890 889 888 887 886 885 884 883 881 880 879 877 876 874 872 870 869 867 865 863 861 859 857 855 852 851 848 846 844 841 839 835 832 829 826 823 820 817 814 811 808 805 802 800 798 797 796 794 793 792 791 790 789 788 787 787 786 786 785 784 783 783 782 781 781 780 779
892 891 890 889 888 887 886 885 884 882 881 880 878 876 875 873 871 870 868 866 864 862 860 858 856 855 852 851 848 846 844 841 839 836 832 829 826 822 820 817 814 811 809 806 804 801 799 797 796 794 792 791 790 789 788 786 786 786 785 784 784 783 782 781 781 780 780 779 778
892 891 890 889 888 887 886 884 883 882 880 879 877 876 874 872 871 869 867 866 864 862 860 858 856 855 852 850 848 846 844 841 839 836 833 829 826 822 819 817 814 811 809 807 805 802 800 798 796 794 792 791 790 788 787 786 785 784 783 783 782 781 781 780 779 779 779 778 777
891 891 890 888 887 886 885 884 882 881 880 878 877 876 874 872 870 869 867 865 863 861 860 858 856 854 852 850 848 846 844 841 839 836 833 830 826 822 819 817 814 812 811 809 806 804 801 799 797 795 793 791 790 788 786 785 784 783 782 781 781 780 780 779 779 779 778 778 777
891 890 889 888 887 886 885 883 882 881 879 878 876 875 873 871 870 868 867 865 863 861 860 858 856 854 852 850 848 846 843 841 839 836 833 830 826 822 819 817 815 813 812 810 808 805 802 800 798 796 794 792 790 788 786 785 784 782 781 781 780 780 779 779 779 778 778 777 776
891 890 889 888 887 886 884 883 882 880 879 878 876 875 873 871 870 868 866 865 863 861 859 858 856 853 851 850 848 846 843 841 839 836 834 831 827 824 820 817 815 814 813 811 809 806 804 801 799 797 795 793 791 789 787 785 784 782 781 780 780 779 779 779 779 779 778 777 777
891 889 888 887 886 885 884 883 881 880 879 877 876 874 873 871 869 868 866 865 863 861 859 857 856 853 851 849 847 845 843 841 839 836 834 831 828 825 822 819 816 815 814 812 810 808 805 802 800 798 796 794 792 790 788 786 784 783 782 781 780 780 780 780 779 779 778 778 778
890 889 888 887 886 885 883 882 881 880 878 876 875 874 872 871 869 867 866 864 863 861 859 857 855 853 851 849 847 846 843 841 839 836 834 832 830 826 823 821 818 816 814 813 811 809 806 804 802 800 797 795 793 791 789 787 785 783 782 781 781 781 781 781 780 780 779 779 780
890 889 887 886 886 884 883 881 880 879 877 876 875 873 872 870 869 867 866 864 862 861 859 857 855 853 851 849 847 846 843 841 839 837 835 832 830 827 824 821 819 817 816 815 813 811 808 806 803 801 799 797 795 793 791 789 787 786 784 782 782 781 782 782 781 781 781 781 781
889 888 887 886 885 884 882 881 880 878 877 876 874 873 871 870 868 867 865 863 862 860 859 857 855 853 851 849 847 845 843 841 839 837 835 832 830 828 825 823 820 818 816 816 815 812 810 807 805 803 801 799 797 795 794 792 790 788 786 785 783 783 782 782 782 781 781 781 781
889 888 887 886 885 883 882 881 879 878 876 875 874 872 871 869 868 866 865 863 861 860 858 856 855 853 851 849 847 845 843 841 840 837 835 833 831 828 826 824 821 819 817 817 816 813 811 809 806 804 802 800 799 797 796 794 793 791 790 788 787 785 784 783 783 782 781 781 781
888 887 886 885 884 883 881 880 879 877 876 875 873 872 870 869 867 866 864 863 861 860 858 856 855 853 851 850 847 846 843 841 839 837 836 833 831 829 826 824 822 819 817 818 816 814 812 810 808 806 803 801 800 799 798 796 795 794 792 791 790 788 787 786 785 784 783 782 781
888 887 886 885 884 882 881 880 878 877 876 874 872 871 870 868 867 865 864 862 861 859 858 856 855 853 851 850 848 846 844 841 839 837 835 833 831 829 827 825 822 820 819 819 817 815 812 810 808 807 805 803 802 801 799 798 797 796 794 793 791 790 789 788 787 786 785 784 783
888 886 886 884 883 882 881 879 878 876 875 873 872 871 869 868 866 865 863 862 860 859 857 856 854 853 851 850 848 846 844 842 839 837 835 833 831 829 827 825 823 821 820 820 818 816 814 811 810 808 806 805 803 802 801 800 798 797 796 794 793 791 790 789 788 787 786 785 784
887 886 885 884 883 881 880 878 877 876 874 873 871 870 868 867 866 864 863 861 860 858 857 856 854 852 851 850 848 846 844 842 840 837 835 833 831 829 827 826 823 822 821 821 819 817 815 813 811 809 807 806 804 803 802 801 800 799 797 796 795 793 791 790 789 788 787 786 785
887 886 885 883 882 881 879 878 876 875 873 872 871 869 868 866 865 864 862 861 859 858 856 855 854 852 851 850 848 846 845 843 841 838 836 834 831 829 827 826 824 823 822 821 820 818 816 814 812 810 808 807 805 804 803 802 801 800 798 797 796 795 793 791 790 789 787 786 786
886 885 884 883 881 880 879 877 876 874 873 871 870 868 867 866 865 863 862 860 859 857 856 855 854 852 851 850 848 846 845 843 841 839 837 835 832 830 828 826 824 823 823 822 820 818 816 815 813 811 810 808 806 805 804 803 802 801 799 798 797 796 795 793 792 791 789 787 786
886 884 883 882 881 879 878 876 875 873 872 871 869 868 866 866 864 863 861 860 859 857 856 855 854 852 851 850 848 846 845 843 841 840 838 836 834 831 830 827 825 824 823 823 821 819 817 816 814 813 811 809 807 806 805 804 803 802 801 800 798 797 796 795 794 792 791 789 788
885 884 883 881 880 879 877 876 874 873 871 870 869 867 866 865 864 862 861 860 858 857 856 855 854 852 851 850 848 847 845 844 842 840 838 836 834 832 831 829 826 824 824 823 821 819 817 816 815 814 812 810 809 807 806 805 804 803 802 801 800 799 797 796 795 794 792 791 790
885 883 882 881 880 878 877 875 874 872 871 870 868 867 866 864 863 862 861 859 858 857 856 855 854 852 851 850 848 847 846 844 842 841 839 837 835 833 831 830 827 826 824 824 822 820 818 817 816 814 813 811 810 809 807 806 805 804 803 802 801 800 798 797 796 795 793 792 791
884 883 881 881 879 878 876 875 873 872 871 869 868 866 865 864 863 861 860 859 858 857 856 855 854 852 851 850 848 847 846 844 843 841 839 837 836 834 832 831 828 826 825 825 823 821 819 817 816 815 814 812 811 810 808 807 806 805 804 803 801 800 799 798 796 795 794 792 791
883 882 881 880 879 877 876 874 873 871 870 869 867 866 865 864 862 861 860 859 858 857 856 855 853 852 851 850 848 847 846 844 843 841 840 838 836 834 833 831 829 827 826 825 823 821 819 818 817 816 815 813 812 811 809 808 807 806 805 804 802 801 800 798 797 796 794 793 791
883 882 881 880 878 877 876 874 872 871 870 868 867 866 865 864 862 861 860 859 858 857 856 854 853 852 851 849 848 847 846 844 843 842 840 839 837 835 833 831 829 828 826 825 824 822 820 819 817 816 815 814 813 811 810 809 808 807 806 804 803 802 801 799 798 796 795 793 792
882 881 880 879 878 876 875 873 872 871 869 868 867 866 865 863 862 861 860 859 858 857 856 854 853 852 851 850 848 847 846 844 843 842 840 839 837 835 833 832 830 828 827 825 824 823 821 819 817 816 816 814 813 812 811 810 809 807 806 805 804 802 801 800 798 797 795 794 793
881 881 880 879 877 876 875 873 871 870 869 868 866 865 864 863 862 861 860 859 858 856 855 854 853 852 851 849 848 847 846 844 843 841 840 839 837 836 834 832 830 829 827 826 824 823 821 819 818 816 816 815 813 812 811 810 809 808 807 806 804 803 801 800 799 797 796 795 793
881 880 879 878 877 876 874 873 871 870 868 867 866 865 864 863 861 861 859 858 857 856 855 854 852 851 850 849 848 846 846 844 843 841 840 839 837 836 834 832 830 829 827 826 824 823 821 820 818 816 815 814 813 813 812 811 810 808 807 806 804 803 801 800 799 798 796 795 794
881 880 879 878 876 875 874 872 871 869 868 867 866 865 863 862 861 860 859 858 857 856 855 853 852 851 850 848 847 846 845 844 843 841 840 839 837 836 834 832 830 829 827 826 824 823 821 820 818 816 815 814 813 813 812 811 810 809 807 806 805 803 802 801 799 798 797 796 795
880 879 878 877 876 875 874 872 871 869 868 866 865 864 863 862 861 860 859 857 856 855 854 853 852 851 850 848 847 846 845 844 843 841 840 839 837 836 834 832 831 829 827 826 824 822 821 820 818 816 815 814 813 812 812 811 810 809 808 806 805 804 802 801 800 798 797 796 795
880 879 878 877 876 875 873 872 871 869 867 866 865 864 863 861 861 859 858 857 856 855 854 853 852 851 849 848 847 846 845 844 843 841 840 839 837 836 834 833 831 829 827 826 824 822 821 819 818 816 815 814 813 812 812 811 810 809 808 807 806 804 803 801 800 799 797 796 795
879 878 877 876 876 874 873 871 870 869 867 866 865 863 862 861 860 859 858 857 856 855 853 852 851 851 849 848 847 846 844 843 842 841 840 839 837 836 834 833 831 829 828 826 824 822 820 819 818 816 815 814 813 812 811 811 810 809 808 807 806 804 803 802 800 799 798 796 795
879 878 877 876 875 874 873 871 870 869 867 866 865 863 862 861 860 859 858 856 855 854 853 852 851 850 849 848 846 845 844 843 841 841 840 838 837 836 834 833 831 830 828 826 825 823 821 819 817 816 815 813 812 812 811 811 810 809 808 807 806 805 803 802 801 799 798 796 795
Wind_Speed
17 17 16 14 14 13 12 11 12 13 14 14 14 14 15 15 16 17 17 18 19 20 21 22 23 25 27 29 28 28 29 30 31 31 31 31 31 30 30 30 30 30 29 28 27 27 26 25 24 23 22 22 21 21 21 20 20 20 19 19 19 18 18 18 18 18 18 18 17
17 17 17 16 16 15 14 12 12 13 14 14 13 14 15 15 16 17 18 19 20 21 22 24 25 26 28 28 29 28 29 31 32 32 32 32 31 31 31 31 30 30 29 29 28 27 26 25 24 23 22 22 21 21 21 20 20 19 19 19 19 18 18 18 18 17 17 17 16
17 17 17 17 18 18 16 14 14 16 16 15 14 14 15 16 16 17 18 20 20 21 23 24 26 27 27 28 29 30 30 31 31 32 32 32 32 32 32 32 31 31 30 29 28 27 26 26 24 23 22 21 21 21 21 20 19 19 18 18 18 17 17 16 16 16 16 15 15
17 17 17 17 18 18 17 16 16 17 17 16 15 15 15 16 17 18 19 21 22 23 23 24 26 26 27 28 30 31 32 31 30 31 32 32 33 33 33 32 32 32 31 30 29 28 27 26 24 23 22 21 21 21 20 20 19 18 17 17 17 17 16 16 16 15 15 15 15
17 17 17 17 17 17 17 17 17 17 17 16 16 16 16 17 18 19 20 22 23 24 25 25 25 26 27 29 31 32 32 32 31 31 32 32 33 33 33 33 32 31 31 30 29 28 27 25 24 22 21 21 20 20 19 19 18 18 17 17 17 16 16 16 16 15 15 15 15
16 17 17 17 17 17 17 16 17 17 17 17 17 18 18 19 20 21 22 23 24 25 25 25 25 26 28 30 31 32 32 32 32 31 32 33 34 34 34 34 33 32 31 30 29 28 26 24 22 21 20 19 19 19 19 18 17 17 17 17 16 16 16 16 16 16 16 16 17
16 16 17 17 17 17 17 16 17 17 17 17 18 19 20 22 22 23 24 24 24 25 25 25 26 28 29 30 31 31 31 32 32 33 33 33 34 35 35 35 34 33 32 31 29 27 25 23 20 19 19 18 18 18 18 17 17 17 17 17 17 17 17 17 18 18 18 18 19
15 16 16 17 17 17 16 17 17 17 17 17 18 20 22 23 23 23 24 24 24 24 25 25 27 29 29 30 30 31 31 32 32 33 34 33 34 35 35 35 35 35 34 32 30 27 24 21 19 18 18 17 17 17 17 17 17 18 18 18 19 18 18 18 19 19 19 19 20
15 16 16 16 16 16 16 16 17 17 17 18 19 21 23 22 22 24 24 24 24 25 25 26 28 29 29 29 30 30 30 31 32 33 34 34 35 35 36 36 36 36 36 34 31 27 23 20 17 17 17 17 17 17 18 18 18 19 19 19 19 19 19 18 19 19 19 20 20
15 16 16 16 16 15 16 16 17 17 18 19 21 22 23 22 23 24 24 23 24 26 27 27 28 29 29 29 29 30 30 31 32 33 34 34 34 35 35 35 36 36 36 34 31 27 22 18 17 16 16 17 17 19 20 20 20 20 20 19 19 19 19 19 19 19 20 20 20
15 15 15 15 15 15 15 16 17 18 19 20 22 23 24 24 25 25 24 24 26 27 27 27 28 28 29 29 29 29 30 30 31 32 33 34 35 35 35 35 36 37 35 32 29 25 22 19 18 17 17 17 18 18 19 19 19 19 19 19 19 20 20 20 19 19 19 19 19
15 15 15 15 15 15 16 17 18 18 19 21 22 23 24 24 25 24 24 25 26 26 26 27 27 28 28 28 29 29 30 30 31 32 33 34 35 36 35 36 37 36 33 29 27 25 24 22 20 19 18 17 17 17 17 18 18 18 18 18 19 19 20 20 19 18 18 18 18
15 15 15 15 15 16 17 18 19 19 20 22 23 23 23 24 24 24 24 25 25 26 26 27 27 27 27 28 29 29 29 30 31 31 32 34 36 36 36 36 37 35 30 27 26 26 25 24 23 21 20 18 17 16 16 16 16 17 17 17 17 18 18 19 18 17 17 17 17
15 15 15 15 16 17 18 19 19 19 20 22 23 23 24 24 24 24 24 24 25 25 26 27 28 27 27 28 29 29 29 29 30 31 32 34 36 37 37 36 38 34 28 26 26 26 26 26 25 24 22 21 20 18 17 16 15 15 15 16 16 16 16 16 16 15 15 15 16
15 15 15 16 17 18 19 20 20 20 21 22 22 23 24 24 24 24 24 24 24 25 25 27 28 28 29 29 29 30 29 29 30 31 32 34 36 37 38 37 38 34 28 26 27 27 26 26 26 25 24 24 23 22 20 18 15 14 14 14 14 13 13 13 13 13 13 13 14
15 15 16 17 18 19 19 20 20 20 21 22 23 23 23 23 24 24 23 24 24 24 25 26 28 29 29 29 30 30 29 30 30 31 32 33 35 36 37 37 38 35 29 25 27 28 27 27 26 26 26 26 26 25 24 23 21 18 16 14 12 11 10 9 10 10 11 11 13
15 15 16 17 18 19 20 20 21 21 22 22 23 23 23 23 23 24 23 23 23 24 25 26 27 28 29 30 30 30 29 30 30 31 32 33 34 34 35 36 36 34 29 23 26 28 29 28 28 28 28 28 29 29 29 29 28 27 24 20 16 13 11 10 10 11 12 13 15
15 16 17 18 19 19 20 21 21 21 22 23 23 23 22 23 23 23 23 23 23 23 25 26 27 28 29 30 30 30 29 30 31 32 32 32 33 33 34 34 35 34 30 23 24 27 29 28 28 29 30 30 31 32 33 33 33 33 31 28 24 20 17 15 14 14 14 15 16
15 16 17 18 19 20 20 21 21 22 22 22 22 22 22 22 23 23 23 23 22 23 24 25 26 28 29 30 31 30 30 30 31 32 32 32 32 33 33 33 33 32 28 23 23 27 29 28 28 29 30 31 32 33 34 34 34 34 34 33 31 27 24 21 20 19 17 15 15
15 16 17 18 19 20 21 21 22 22 22 22 22 22 22 22 22 23 23 23 22 22 23 24 26 27 28 30 31 31 31 30 30 31 32 32 32 33 33 32 32 30 27 23 23 26 29 29 28 29 30 31 32 32 33 33 33 33 34 34 33 32 30 28 28 27 24 20 17
16 16 17 18 19 20 21 22 22 22 23 23 22 22 22 22 22 23 23 22 22 22 22 24 25 26 28 29 30 32 32 31 31 31 31 31 32 32 32 32 31 29 26 22 23 26 28 29 29 29 30 31 31 31 31 31 31 31 31 32 32 31 31 31 31 31 30 28 24
16 16 17 18 19 20 21 22 22 23 23 23 22 22 22 22 22 23 22 22 21 21 22 23 24 25 26 28 29 31 31 31 32 31 31 31 32 32 32 32 31 29 25 22 23 25 27 28 29 29 29 30 30 30 30 29 29 29 29 29 29 28 28 28 29 30 31 31 29
16 16 17 18 19 20 21 22 22 23 23 23 22 22 21 21 22 22 22 22 21 21 21 22 23 24 25 26 28 29 31 32 32 32 32 32 32 32 32 32 32 29 25 22 23 24 25 27 28 29 29 29 29 28 28 28 28 28 28 28 27 26 26 26 27 28 29 29 30
15 16 17 18 19 20 21 22 22 23 23 23 22 21 21 21 22 22 23 22 21 21 21 21 22 23 24 25 27 28 30 31 32 33 33 33 33 32 32 31 32 28 23 21 23 23 23 25 27 28 28 28 28 27 27 27 27 27 27 27 27 26 25 25 25 26 27 28 28
15 16 17 19 20 20 21 22 22 23 23 22 22 21 20 20 21 22 22 22 21 21 21 21 22 23 23 24 26 27 29 30 31 33 34 34 34 33 32 30 32 28 21 20 22 23 23 23 26 28 29 28 28 27 26 26 26 26 27 27 27 27 26 26 26 26 27 27 27
16 17 18 19 20 20 21 22 22 22 22 22 21 20 20 20 21 21 22 22 21 21 21 21 22 22 23 23 24 26 27 29 30 31 33 34 35 34 32 30 32 28 21 20 23 24 24 24 25 27 29 29 28 27 26 25 25 25 26 26 26 26 27 27 26 26 26 27 27
16 17 18 19 20 21 21 21 22 22 22 22 21 20 19 20 20 21 21 21 21 21 21 21 22 22 22 22 23 25 26 27 29 30 31 33 34 34 33 31 33 30 24 22 23 24 25 25 26 27 29 30 30 28 26 24 23 24 25 25 25 25 25 26 26 26 26 26 26
17 18 19 20 20 21 21 21 22 22 22 21 20 19 19 19 20 20 21 21 21 21 21 21 21 21 22 22 22 23 24 26 27 29 30 31 32 32 32 32 34 33 28 24 23 24 25 26 26 27 28 30 30 29 27 25 23 23 24 24 24 24 24 24 25 24 24 24 24
17 18 19 20 20 21 21 22 22 22 21 20 19 18 18 19 19 20 20 20 21 21 21 21 21 21 22 22 22 22 23 24 25 27 28 30 31 31 31 31 32 33 31 26 24 24 25 26 26 27 28 30 30 29 27 26 24 23 23 23 23 23 23 23 23 24 23 23 22
17 18 19 20 20 21 21 22 22 21 20 19 18 18 18 19 19 20 20 20 21 21 20 20 21 21 21 21 21 21 22 23 24 25 27 29 29 30 30 29 30 31 30 27 24 23 24 26 26 27 28 30 31 30 29 27 25 23 22 23 23 23 23 23 23 24 24 24 22
17 18 18 19 20 21 21 22 22 21 19 18 17 17 18 19 19 19 19 19 20 20 20 20 20 20 21 21 21 21 21 22 23 24 25 27 28 29 29 28 29 30 29 28 24 23 23 25 25 26 28 30 31 32 31 29 27 25 24 24 25 25 24 23 23 24 24 24 23
17 17 18 19 20 21 21 22 21 20 19 17 17 17 18 18 18 18 18 18 19 19 20 20 20 20 21 21 21 21 21 21 22 23 24 25 27 28 28 28 29 29 29 28 26 23 22 24 25 26 27 30 31 32 32 30 29 28 27 26 26 26 25 25 25 24 25 25 24
16 17 18 19 20 21 21 22 21 20 18 17 16 17 17 18 17 16 16 17 18 19 19 20 20 21 21 21 21 21 21 21 22 22 22 23 25 26 27 27 28 28 28 28 27 23 21 22 23 25 26 28 30 31 31 30 30 29 29 28 27 26 26 25 25 25 25 25 25
16 17 18 18 19 20 21 22 21 20 18 17 16 16 17 17 17 16 16 16 17 18 19 19 20 20 21 21 21 21 21 21 21 21 22 22 24 25 26 27 27 27 28 28 28 24 20 19 22 24 26 27 29 30 30 29 29 29 30 29 28 27 26 25 25 25 25 25 25
16 17 17 18 19 20 21 21 21 20 19 17 16 16 17 17 16 16 15 15 16 17 18 19 19 20 20 20 20 20 20 21 21 21 21 22 22 23 24 25 26 27 27 27 27 25 21 18 20 23 25 26 27 28 28 27 27 28 29 29 29 28 27 26 26 25 25 24 25
15 16 17 18 19 20 21 21 21 21 19 18 17 17 17 17 16 15 15 15 15 16 17 18 19 20 20 20 20 20 20 20 21 21 21 21 22 23 23 24 25 26 26 26 26 26 22 17 18 21 25 26 27 26 26 25 25 26 28 28 29 28 28 27 26 25 25 24 24
15 16 17 18 18 19 20 21 21 21 20 19 18 17 17 17 16 15 15 15 15 16 17 18 19 19 20 20 20 20 19 20 20 21 21 21 22 22 23 23 24 25 25 25 26 27 25 19 16 19 23 25 25 25 24 24 24 25 26 27 27 28 28 26 25 25 25 24 22
14 15 16 17 18 19 20 20 21 21 21 20 18 17 16 16 16 16 15 15 15 15 16 17 18 18 19 19 19 19 19 19 19 20 21 21 22 23 23 23 23 23 24 25 26 27 26 22 16 16 20 23 24 23 23 22 23 23 24 25 25 27 27 26 24 24 24 24 21
13 14 15 16 17 18 19 20 20 21 21 20 19 18 17 16 16 16 15 14 14 14 15 15 16 17 17 18 18 18 18 18 19 19 21 22 22 22 22 22 21 21 22 24 25 27 27 26 19 15 16 20 22 22 22 21 22 22 23 23 24 25 26 25 24 23 23 24 22
13 14 14 15 16 17 18 19 20 20 20 20 19 18 17 16 16 15 15 14 13 13 13 14 15 15 16 17 17 18 18 18 18 19 20 21 22 22 21 21 20 20 20 22 24 26 27 28 24 17 14 17 19 20 21 20 21 21 22 22 23 23 23 23 22 22 22 23 22
12 13 14 15 15 16 17 18 19 20 20 20 20 19 18 17 16 15 15 14 13 13 13 13 14 14 15 16 17 18 18 18 18 18 19 20 21 21 21 20 19 19 19 20 22 24 26 27 27 22 16 14 16 18 19 19 20 20 20 21 22 22 22 22 21 21 21 20 20
Wind_Direction
16 15 12 6 0 357 354 350 348 348 347 345 343 342 340 338 336 334 331 329 326 325 324 322 321 320 320 319 319 320 321 321 321 320 319 318 316 315 314 312 311 309 307 303 302 301 300 299 297 295 294 293 292 290 288 286 286 286 286 287 287 288 288 287 284 282 281 281 281
15 15 13 11 7 3 357 352 348 347 347 347 344 342 340 338 334 332 331 329 326 324 324 323 322 321 320 320 322 322 322 322 322 321 321 319 318 317 315 314 311 309 306 304 303 301 300 299 296 294 293 292 290 288 287 285 285 284 284 285 286 287 287 286 283 281 280 280 280
14 13 12 10 8 5 0 354 350 350 352 350 345 340 338 337 334 331 329 326 323 322 323 324 323 322 321 322 323 324 324 323 323 323 322 321 320 319 317 315 312 310 308 305 303 300 298 298 296 294 292 290 288 288 287 285 284 284 284 285 286 287 286 284 282 281 281 281 281
13 11 8 7 6 4 0 355 352 352 352 349 344 340 337 335 333 330 327 326 325 325 325 324 323 323 323 323 324 325 326 326 324 324 324 323 322 320 319 317 315 312 310 307 304 301 299 297 295 293 291 289 287 285 284 285 284 284 284 285 286 286 284 282 281 280 280 280 280
11 9 7 5 3 2 359 356 354 353 351 348 344 340 336 335 334 332 330 329 327 327 326 326 324 325 326 326 327 327 328 329 329 328 326 324 324 323 322 320 317 314 311 310 308 304 300 297 294 292 290 288 285 284 283 282 283 283 284 285 284 282 281 279 278 277 278 279 280
7 6 4 2 1 359 357 356 355 353 351 348 344 340 338 336 334 332 331 329 327 327 328 328 327 327 328 329 330 330 331 331 332 330 328 328 328 327 325 324 321 319 316 314 312 308 304 299 295 291 288 287 285 284 282 280 280 280 280 282 280 279 277 276 276 276 277 278 279
5 3 1 359 358 357 356 356 355 353 350 347 343 340 339 338 335 333 331 330 329 330 331 330 330 330 331 331 332 331 332 333 333 333 332 331 331 330 330 328 327 326 323 320 316 313 308 303 296 292 289 287 285 283 281 279 278 278 278 278 279 277 276 275 275 276 277 278 279
5 3 0 357 356 355 356 356 354 351 348 345 343 342 342 341 337 335 334 334 333 332 332 331 332 332 333 333 333 333 333 333 334 335 334 332 333 333 333 333 333 332 331 328 324 319 313 307 299 293 289 286 284 282 281 280 278 277 277 278 279 278 277 277 277 278 278 279 280
5 3 0 357 355 355 355 354 353 350 347 346 344 345 344 341 338 337 337 335 334 334 334 334 334 335 335 335 335 335 336 336 335 336 336 334 335 336 337 337 337 337 336 335 333 328 322 313 305 298 292 286 283 282 283 282 280 279 279 279 280 280 280 280 279 280 280 280 281
4 3 1 357 355 354 353 352 352 351 349 347 347 347 345 342 341 340 339 336 336 336 337 337 337 337 337 338 338 337 337 337 337 337 337 337 337 338 339 340 340 340 341 341 341 340 335 326 317 308 298 292 287 285 285 284 282 281 280 280 281 282 282 282 282 281 281 282 282
4 4 2 358 355 355 354 352 351 351 350 348 348 347 346 344 344 343 340 338 339 339 339 339 339 339 339 339 339 339 339 338 338 338 338 339 339 340 341 342 343 343 344 347 351 351 349 342 331 322 313 304 298 294 291 289 286 283 282 281 283 284 284 284 284 284 284 284 285
5 5 3 0 360 359 357 354 352 351 350 349 348 346 345 344 344 343 341 341 341 341 341 342 342 342 341 340 340 340 341 341 340 339 339 340 341 342 343 345 345 346 348 355 359 1 359 354 347 339 331 323 315 307 301 297 292 288 284 284 284 285 286 287 289 289 289 289 290
6 5 4 4 4 2 359 356 353 351 349 349 348 346 345 345 345 344 343 343 343 343 344 344 344 344 342 341 341 341 341 343 343 343 343 343 344 344 346 348 348 349 353 3 6 7 5 4 1 356 350 343 335 326 317 309 301 294 289 287 287 287 288 292 295 296 296 296 295
8 7 7 6 5 2 360 357 353 350 349 348 347 347 346 346 346 346 345 344 344 345 345 346 346 345 344 343 343 343 343 344 345 346 347 347 348 348 349 349 350 351 357 8 11 11 11 10 9 7 4 359 355 348 340 330 318 307 300 295 293 293 295 300 303 305 304 303 305
9 9 9 7 4 1 359 356 353 350 348 347 347 347 347 346 346 347 347 346 346 347 348 348 348 348 347 347 346 345 345 346 348 349 350 350 351 352 351 351 352 354 359 11 15 15 14 14 13 13 12 10 8 6 2 355 346 334 323 317 311 308 310 314 318 319 318 318 325
9 9 8 5 2 0 359 356 354 351 348 347 348 349 348 348 348 349 348 348 349 350 352 352 351 350 350 350 350 349 348 349 350 352 352 352 353 353 353 354 354 355 358 8 15 18 18 18 18 17 17 17 16 16 15 15 12 8 1 354 347 343 343 344 349 353 355 355 358
8 8 6 3 1 360 359 358 355 352 350 349 349 350 350 350 351 351 351 351 351 352 354 355 354 353 352 352 352 351 350 350 352 353 354 354 354 354 354 355 355 356 358 5 15 19 20 22 22 22 22 22 22 22 22 23 24 24 23 22 22 26 30 31 33 36 37 33 27
7 5 4 1 0 360 360 359 356 354 352 351 350 351 352 353 353 353 354 355 354 354 355 357 358 357 355 354 353 352 351 352 353 355 356 356 356 355 355 356 358 359 360 5 15 20 21 24 26 27 28 27 27 27 27 28 28 29 30 31 33 37 42 45 45 48 50 49 43
5 3 2 0 360 360 360 359 357 355 353 352 352 352 353 355 356 356 356 356 357 357 357 358 359 359 358 356 355 354 353 354 354 356 357 358 358 358 357 357 359 1 4 9 16 20 22 26 29 32 32 32 31 31 31 31 31 32 33 34 34 35 37 38 38 39 42 47 47
3 1 0 360 359 360 360 359 357 355 354 353 353 353 354 355 356 357 357 357 358 359 359 359 360 1 0 359 358 357 356 356 356 357 358 359 360 359 359 358 359 3 7 13 16 18 21 27 31 34 36 36 35 33 32 32 33 34 35 36 36 35 33 32 31 31 31 32 35
1 360 359 359 359 359 359 358 357 355 354 354 353 353 353 354 355 356 357 357 358 359 360 0 1 2 2 1 359 358 358 357 358 358 359 360 1 1 360 359 360 3 8 16 18 18 20 26 31 35 37 38 37 35 33 32 32 34 36 39 39 38 36 33 30 29 28 27 24
360 359 358 358 358 358 357 356 355 354 354 353 353 352 352 353 353 355 356 357 359 0 0 1 1 2 3 2 0 359 359 359 360 0 0 0 1 2 2 1 2 4 8 18 22 20 20 24 29 34 36 37 36 35 34 33 32 33 36 39 41 42 40 36 32 30 28 26 23
358 358 357 357 356 356 355 354 354 353 352 352 352 352 351 351 352 353 354 357 359 0 1 1 1 2 4 4 2 1 0 1 1 2 2 1 1 2 3 2 2 4 9 21 25 25 23 24 28 32 35 36 35 34 33 32 32 32 33 35 37 38 38 36 34 30 27 24 22
356 356 355 354 353 353 353 352 352 352 351 351 351 351 350 350 350 351 353 356 359 1 2 1 1 3 4 5 4 2 1 1 1 2 2 2 2 1 1 0 359 1 9 24 27 29 30 29 30 32 34 35 35 33 32 31 30 29 29 29 30 31 32 32 32 29 25 21 18
353 352 351 350 350 350 350 351 350 350 349 349 349 349 349 349 350 351 353 355 359 1 2 2 2 2 3 4 4 3 2 2 1 1 1 1 1 1 360 358 356 358 10 29 32 33 35 36 34 34 35 37 35 34 32 30 29 28 28 27 26 26 26 27 28 26 24 21 17
350 349 348 347 347 348 349 349 349 348 348 348 348 349 349 349 350 351 353 355 359 1 2 2 1 1 1 2 3 4 3 2 1 1 1 0 1 0 359 356 353 356 12 35 37 37 38 39 38 36 36 38 37 35 31 29 27 27 28 27 26 25 23 22 22 22 23 21 17
348 346 345 345 346 347 348 348 347 347 347 348 348 349 349 349 350 351 353 356 359 1 3 2 1 360 360 1 3 4 3 2 1 1 1 1 1 360 358 356 353 357 10 34 39 39 40 40 40 38 37 38 38 36 33 29 27 26 27 27 26 24 23 20 19 19 20 21 18
348 346 345 345 346 348 348 348 347 347 347 348 349 349 349 350 350 352 353 356 360 2 3 1 0 359 360 1 3 3 3 2 1 360 360 1 1 0 359 357 355 358 8 27 37 40 41 41 41 39 37 37 37 37 35 32 28 27 26 26 25 23 22 20 19 18 18 19 17
348 347 346 346 347 348 349 349 348 348 348 349 349 350 350 351 351 352 354 357 1 3 1 359 359 0 1 2 2 2 1 1 0 359 359 360 0 0 359 358 358 359 4 17 32 40 41 42 41 39 37 36 36 36 35 33 31 28 27 25 24 22 21 20 19 17 16 16 15
349 348 347 347 348 349 350 350 350 349 350 350 350 351 351 351 352 353 355 358 2 2 1 359 0 2 2 2 1 0 360 360 359 359 358 358 358 358 358 358 359 359 1 8 25 38 42 42 41 39 36 35 35 34 34 32 31 29 27 26 25 23 22 20 19 17 16 15 13
350 348 348 348 349 350 351 351 351 351 352 352 352 352 352 352 353 354 356 359 1 3 2 2 3 4 4 3 2 0 359 358 358 357 357 356 356 357 357 357 359 359 358 0 18 35 43 42 41 39 36 34 33 33 32 31 30 29 28 27 26 25 23 21 18 17 15 14 12
350 349 348 348 349 350 351 352 353 353 353 353 353 353 353 353 353 353 356 359 2 4 4 4 4 4 4 3 2 0 359 358 357 356 355 354 354 355 356 355 357 357 354 354 10 28 41 42 41 38 35 32 32 31 31 30 29 28 28 28 27 26 25 23 20 18 16 15 11
350 349 349 349 349 350 352 353 354 354 353 353 354 353 353 352 351 352 355 0 3 3 3 3 3 3 3 3 2 0 359 357 355 354 353 352 352 353 354 354 355 355 352 349 0 18 36 42 40 37 33 30 29 29 29 28 27 27 27 27 27 27 26 25 23 20 18 16 12
351 350 349 349 349 351 352 354 355 355 354 353 353 352 352 351 351 352 355 359 2 2 2 3 3 3 3 3 2 0 358 356 354 353 351 351 350 350 351 352 353 353 351 348 354 7 28 42 40 35 31 28 26 26 26 25 25 24 24 25 25 26 26 26 25 23 21 17 13
351 349 349 349 349 351 353 354 355 355 354 353 351 351 350 349 350 351 354 356 359 0 2 3 4 3 3 3 3 1 359 356 354 352 351 349 347 347 347 349 351 352 351 349 349 359 17 37 39 34 29 25 23 23 23 22 21 20 20 21 22 23 24 25 25 24 22 19 14
350 349 348 348 349 351 353 355 355 356 355 353 350 349 348 347 348 349 350 351 354 357 359 1 2 3 2 2 2 2 360 356 354 352 350 348 346 344 344 345 347 350 351 349 346 351 3 24 37 34 27 23 21 20 20 19 18 17 17 17 18 19 20 21 21 21 21 19 13
350 349 348 348 349 351 353 355 356 357 356 354 351 347 345 345 345 346 347 348 350 353 355 357 359 0 1 1 1 1 360 357 354 352 350 347 345 343 342 342 343 346 348 349 345 344 350 7 29 33 27 23 20 18 18 17 16 15 14 14 14 15 16 16 16 16 17 15 10
350 349 349 348 349 350 352 355 357 358 357 354 351 347 344 343 343 344 346 347 349 350 351 353 355 357 359 360 0 360 359 357 355 352 350 348 346 344 342 339 339 341 345 347 344 342 345 355 13 27 27 23 19 17 16 15 13 12 12 12 11 12 12 13 12 11 11 11 6
349 349 349 349 349 350 352 354 357 358 358 355 352 348 344 343 343 344 344 346 347 347 348 349 352 354 357 359 360 359 358 356 354 352 350 348 347 345 342 339 336 337 340 343 343 342 341 343 353 12 24 22 19 16 13 12 10 10 9 9 9 9 9 10 9 7 7 7 4
348 349 349 349 349 350 351 353 356 358 358 357 354 350 346 343 342 341 342 343 344 344 345 346 348 350 354 357 359 359 357 355 353 351 350 348 348 346 344 340 336 334 336 340 341 341 339 337 340 351 10 18 18 15 11 8 7 6 6 7 7 7 7 6 6 5 3 3 1
348 349 349 350 350 350 351 352 355 358 359 358 356 352 348 344 341 339 339 340 341 342 344 345 345 347 350 354 356 356 356 355 353 350 348 347 347 347 346 344 339 336 336 337 339 339 337 335 335 337 348 8 15 13 8 5 3 3 3 4 5 6 6 5 4 3 1 359 357